User: anonymous   Login
Location: Great Northern Moose Lodge
(44.6765°N, 71.1811°W)
Time: 02:41:39
(UTC-04:00)
Language:

Terra - Orbit

View from above orbital plane
View from above orbital plane
View from above satellite
View from above satellite

Ground track
Ground track

The orbit data is extracted from the following two-line orbital elements,

1 25994U 99068A   15089.79737333  .00000715  00000-0  16881-3 0  9996
2 25994 098.2163 165.4268 0001561 106.2989 253.8386 14.57110694812802
Epoch (UTC): 30 March 2015 19:08:13
Eccentricity: 0.0001561
inclination: 98.2163°
perigee height: 701 km
apogee height: 703 km
right ascension of ascending node: 165.4268°
argument of perigee: 106.2989°
revolutions per day: 14.57110694
mean anomaly at epoch: 253.8386°
orbit number at epoch: 81280

The dashed part of the orbit path shows where the satellite is in the earth's shadow,  

DLR